15-03-2022, 00:00:00,    153,    0.0,    4.2,   0.00,   0.00, 1020.8,   87.4, -999.0
15-03-2022, 00:00:10,    153,    0.1,    4.2,   0.00,   0.00, 1020.9,   87.6, -999.0
15-03-2022, 00:00:20,    153,    0.0,    4.3,   0.00,   0.00, 1020.9,   87.4, -999.0
15-03-2022, 00:00:30,    152,    0.0,    4.3,   0.00,   0.00, 1020.9,   87.5, -999.0
15-03-2022, 00:00:40,    153,    0.0,    4.3,   0.00,   0.00, 1020.8,   87.4, -999.0
15-03-2022, 00:00:50,    153,    0.0,    4.2,   0.00,   0.00, 1020.9,   87.4, -999.0
15-03-2022, 00:01:00,    153,    0.0,    4.2,   0.00,   0.00, 1020.9,   87.4, -999.0
15-03-2022, 00:01:10,    153,    0.0,    4.2,   0.00,   0.00, 1020.9,   87.5, -999.0
15-03-2022, 00:01:20,    153,    0.0,    4.3,   0.00,   0.00, 1020.8,   87.7, -999.0
15-03-2022, 00:01:29,    153,    0.0,    4.3,   0.00,   0.00, 1020.9,   87.7, -999.0
15-03-2022, 00:01:40,    153,    0.0,    4.3,   0.00,   0.00, 1020.9,   87.6, -999.0
15-03-2022, 00:01:49,    153,    0.0,    4.3,   0.00,   0.00, 1020.9,   87.5, -999.0
15-03-2022, 00:01:59,    153,    0.0,    4.2,   0.00,   0.00, 1020.9,   87.6, -999.0
15-03-2022, 00:02:10,    153,    0.0,    4.3,   0.00,   0.00, 1020.8,   87.6, -999.0
15-03-2022, 00:02:19,    152,    0.0,    4.3,   0.00,   0.00, 1020.8,   87.5, -999.0
15-03-2022, 00:02:29,    153,    0.0,    4.2,   0.00,   0.00, 1020.9,   87.6, -999.0
15-03-2022, 00:02:39,    153,    0.0,    4.3,   0.00,   0.00, 1020.8,   87.6, -999.0
15-03-2022, 00:02:49,    153,    0.0,    4.3,   0.00,   0.00, 1020.8,   87.7, -999.0
15-03-2022, 00:02:59,    153,    0.0,    4.3,   0.00,   0.00, 1020.8,   87.7, -999.0
15-03-2022, 00:03:09,    152,    0.0,    4.3,   0.00,   0.00, 1020.8,   87.8, -999.0
15-03-2022, 00:03:19,    152,    0.0,    4.4,   0.00,   0.00, 1020.8,   87.9, -999.0
15-03-2022, 00:03:29,    153,    0.0,    4.3,   0.00,   0.00, 1020.9,   87.9, -999.0
15-03-2022, 00:03:39,    153,    0.0,    4.4,   0.00,   0.00, 1020.9,   87.8, -999.0
15-03-2022, 00:03:49,    153,    0.0,    4.3,   0.00,   0.00, 1020.8,   87.8, -999.0
15-03-2022, 00:03:59,    153,    0.0,    4.3,   0.00,   0.00, 1020.8,   87.7, -999.0
15-03-2022, 00:04:09,    153,    0.0,    4.3,   0.00,   0.00, 1020.9,   87.8, -999.0
15-03-2022, 00:04:19,    152,    0.0,    4.4,   0.00,   0.00, 1020.8,   87.7, -999.0
15-03-2022, 00:04:29,    153,    0.0,    4.2,   0.00,   0.00, 1020.8,   87.7, -999.0
15-03-2022, 00:04:39,    152,    0.0,    4.4,   0.00,   0.00, 1020.8,   87.9, -999.0
15-03-2022, 00:04:49,    153,    0.0,    4.3,   0.00,   0.00, 1020.8,   87.8, -999.0
15-03-2022, 00:04:58,    152,    0.0,    4.3,   0.00,   0.00, 1020.8,   87.7, -999.0
15-03-2022, 00:05:08,    153,    0.0,    4.3,   0.00,   0.00, 1020.8,   87.8, -999.0
15-03-2022, 00:05:19,    152,    0.0,    4.3,   0.00,   0.00, 1020.8,   87.7, -999.0
15-03-2022, 00:05:28,    152,    0.0,    4.3,   0.00,   0.00, 1020.8,   87.7, -999.0
15-03-2022, 00:05:38,    153,    0.0,    4.3,   0.00,   0.00, 1020.8,   87.7, -999.0
15-03-2022, 00:05:48,    152,    0.0,    4.3,   0.00,   0.00, 1020.8,   87.7, -999.0
15-03-2022, 00:05:58,    152,    0.0,    4.3,   0.00,   0.00, 1020.8,   87.7, -999.0
15-03-2022, 00:06:08,    153,    0.0,    4.3,   0.00,   0.00, 1020.8,   87.8, -999.0
15-03-2022, 00:06:18,    153,    0.0,    4.3,   0.00,   0.00, 1020.8,   87.8, -999.0
15-03-2022, 00:06:28,    152,    0.0,    4.3,   0.00,   0.00, 1020.8,   87.7, -999.0
15-03-2022, 00:06:38,    152,    0.0,    4.3,   0.00,   0.00, 1020.8,   87.8, -999.0
15-03-2022, 00:06:48,    153,    0.0,    4.2,   0.00,   0.00, 1020.8,   87.8, -999.0
15-03-2022, 00:06:58,    153,    0.0,    4.3,   0.00,   0.00, 1020.8,   87.8, -999.0
15-03-2022, 00:07:08,    152,    0.0,    4.3,   0.00,   0.00, 1020.8,   87.8, -999.0
15-03-2022, 00:07:18,    152,    0.0,    4.3,   0.00,   0.00, 1020.8,   87.7, -999.0
15-03-2022, 00:07:28,    153,    0.0,    4.3,   0.00,   0.00, 1020.8,   87.8, -999.0
15-03-2022, 00:07:38,    153,    0.0,    4.3,   0.00,   0.00, 1020.8,   87.9, -999.0
15-03-2022, 00:07:48,    152,    0.0,    4.3,   0.00,   0.00, 1020.8,   87.9, -999.0
15-03-2022, 00:07:58,    153,    0.0,    4.3,   0.00,   0.00, 1020.8,   87.8, -999.0
15-03-2022, 00:08:07,    153,    0.0,    4.3,   0.00,   0.00, 1020.8,   87.8, -999.0
15-03-2022, 00:08:17,    153,    0.0,    4.4,   0.00,   0.00, 1020.8,   87.8, -999.0
15-03-2022, 00:08:28,    153,    0.0,    4.3,   0.00,   0.00, 1020.7,   87.9, -999.0
15-03-2022, 00:08:37,    153,    0.0,    4.3,   0.00,   0.00, 1020.8,   87.8, -999.0
15-03-2022, 00:08:47,    153,    0.0,    4.3,   0.00,   0.00, 1020.7,   87.8, -999.0
15-03-2022, 00:08:58,    153,    0.0,    4.3,   0.00,   0.00, 1020.7,   87.9, -999.0
15-03-2022, 00:09:07,    152,    0.0,    4.3,   0.00,   0.00, 1020.7,   87.9, -999.0
15-03-2022, 00:09:17,    152,    0.0,    4.3,   0.00,   0.00, 1020.7,   87.8, -999.0
15-03-2022, 00:09:27,    152,    0.0,    4.3,   0.00,   0.00, 1020.7,   87.8, -999.0
15-03-2022, 00:09:37,    153,    0.0,    4.3,   0.00,   0.00, 1020.8,   87.8, -999.0
15-03-2022, 00:09:47,    152,    0.0,    4.2,   0.00,   0.00, 1020.7,   87.7, -999.0
15-03-2022, 00:09:57,    153,    0.0,    4.2,   0.00,   0.00, 1020.8,   87.8, -999.0
15-03-2022, 00:10:07,    153,    0.0,    4.3,   0.00,   0.00, 1020.8,   87.8, -999.0
15-03-2022, 00:10:17,    153,    0.0,    4.2,   0.00,   0.00, 1020.8,   87.9, -999.0
15-03-2022, 00:10:27,    153,    0.0,    4.3,   0.00,   0.00, 1020.7,   87.9, -999.0
15-03-2022, 00:10:37,    152,    0.0,    4.3,   0.00,   0.00, 1020.7,   87.9, -999.0
15-03-2022, 00:10:47,    152,    0.0,    4.3,   0.00,   0.00, 1020.7,   87.9, -999.0
15-03-2022, 00:10:57,    152,    0.0,    4.3,   0.00,   0.00, 1020.8,   87.9, -999.0
15-03-2022, 00:11:07,    153,    0.0,    4.3,   0.00,   0.00, 1020.8,   88.1, -999.0
15-03-2022, 00:11:16,    153,    0.0,    4.2,   0.00,   0.00, 1020.8,   88.0, -999.0
15-03-2022, 00:11:27,    152,    0.0,    4.3,   0.00,   0.00, 1020.7,   88.0, -999.0
15-03-2022, 00:11:37,    152,    0.0,    4.3,   0.00,   0.00, 1020.8,   88.0, -999.0
15-03-2022, 00:11:46,    152,    0.0,    4.3,   0.00,   0.00, 1020.8,   88.0, -999.0
15-03-2022, 00:11:56,    153,    0.0,    4.4,   0.00,   0.00, 1020.7,   88.1, -999.0
15-03-2022, 00:12:07,    153,    0.0,    4.4,   0.00,   0.00, 1020.8,   88.2, -999.0
15-03-2022, 00:12:16,    153,    0.0,    4.4,   0.00,   0.00, 1020.7,   88.2, -999.0
15-03-2022, 00:12:26,    152,    0.0,    4.4,   0.00,   0.00, 1020.7,   88.1, -999.0
15-03-2022, 00:12:36,    152,    0.0,    4.4,   0.00,   0.00, 1020.7,   88.1, -999.0
15-03-2022, 00:12:46,    153,    0.0,    4.4,   0.00,   0.00, 1020.7,   88.2, -999.0
15-03-2022, 00:12:56,    152,    0.0,    4.3,   0.00,   0.00, 1020.7,   88.2, -999.0
15-03-2022, 00:13:06,    153,    0.0,    4.4,   0.00,   0.00, 1020.7,   88.1, -999.0
15-03-2022, 00:13:16,    152,    0.0,    4.3,   0.00,   0.00, 1020.7,   88.1, -999.0
15-03-2022, 00:13:26,    153,    0.0,    4.4,   0.00,   0.00, 1020.7,   88.1, -999.0
15-03-2022, 00:13:36,    153,    0.0,    4.4,   0.00,   0.00, 1020.7,   88.1, -999.0
15-03-2022, 00:13:46,    152,    0.0,    4.4,   0.00,   0.00, 1020.7,   88.2, -999.0
15-03-2022, 00:13:56,    153,    0.0,    4.4,   0.00,   0.00, 1020.7,   88.2, -999.0
15-03-2022, 00:14:06,    152,    0.0,    4.4,   0.00,   0.00, 1020.7,   88.3, -999.0
15-03-2022, 00:14:16,    152,    0.0,    4.5,   0.00,   0.00, 1020.8,   88.5, -999.0
15-03-2022, 00:14:25,    153,    0.0,    4.5,   0.00,   0.00, 1020.7,   88.4, -999.0
15-03-2022, 00:14:36,    152,    0.0,    4.5,   0.00,   0.00, 1020.8,   88.4, -999.0
15-03-2022, 00:14:46,    152,    0.0,    4.5,   0.00,   0.00, 1020.7,   88.3, -999.0
15-03-2022, 00:14:55,    152,    0.0,    4.5,   0.00,   0.00, 1020.8,   88.5, -999.0
15-03-2022, 00:15:05,    152,    0.0,    4.4,   0.00,   0.00, 1020.7,   88.3, -999.0
15-03-2022, 00:15:16,    152,    0.0,    4.4,   0.00,   0.00, 1020.7,   88.3, -999.0
15-03-2022, 00:15:25,    152,    0.0,    4.5,   0.00,   0.00, 1020.7,   88.5, -999.0
15-03-2022, 00:15:35,    152,    0.2,    4.6,   0.00,   0.00, 1020.8,   88.8, -999.0
15-03-2022, 00:15:45,    153,    0.0,    4.5,   0.00,   0.00, 1020.7,   88.5, -999.0
15-03-2022, 00:15:55,    152,    0.0,    4.4,   0.00,   0.00, 1020.7,   88.5, -999.0
15-03-2022, 00:16:05,    152,    0.0,    4.5,   0.00,   0.00, 1020.7,   88.4, -999.0
15-03-2022, 00:16:15,    152,    0.0,    4.5,   0.00,   0.00, 1020.7,   88.4, -999.0
15-03-2022, 00:16:25,    152,    0.0,    4.5,   0.00,   0.00, 1020.7,   88.4, -999.0
15-03-2022, 00:16:35,    153,    0.3,    4.5,   0.00,   0.00, 1020.7,   88.6, -999.0
15-03-2022, 00:16:45,    153,    0.1,    4.5,   0.00,   0.00, 1020.7,   88.5, -999.0
15-03-2022, 00:16:55,    152,    0.1,    4.5,   0.00,   0.00, 1020.7,   88.4, -999.0
15-03-2022, 00:17:05,    152,    0.0,    4.4,   0.00,   0.00, 1020.7,   88.4, -999.0
15-03-2022, 00:17:15,    152,    0.0,    4.5,   0.00,   0.00, 1020.7,   88.4, -999.0
15-03-2022, 00:17:25,    153,    0.0,    4.5,   0.00,   0.00, 1020.7,   88.4, -999.0
15-03-2022, 00:17:34,    152,    0.0,    4.5,   0.00,   0.00, 1020.7,   88.5, -999.0
15-03-2022, 00:17:45,    152,    0.0,    4.5,   0.00,   0.00, 1020.7,   88.4, -999.0
15-03-2022, 00:17:55,    152,    0.0,    4.5,   0.00,   0.00, 1020.7,   88.4, -999.0
15-03-2022, 00:18:04,    152,    0.0,    4.5,   0.00,   0.00, 1020.6,   88.4, -999.0
15-03-2022, 00:18:14,    152,    0.0,    4.5,   0.00,   0.00, 1020.6,   88.3, -999.0
15-03-2022, 00:18:25,    152,    0.0,    4.4,   0.00,   0.00, 1020.7,   88.5, -999.0
15-03-2022, 00:18:34,    153,    0.0,    4.5,   0.00,   0.00, 1020.6,   88.4, -999.0
15-03-2022, 00:18:44,    152,    0.0,    4.5,   0.00,   0.00, 1020.6,   88.5, -999.0
15-03-2022, 00:18:55,    152,    0.0,    4.5,   0.00,   0.00, 1020.6,   88.6, -999.0
15-03-2022, 00:19:04,    152,    0.0,    4.6,   0.00,   0.00, 1020.6,   88.7, -999.0
15-03-2022, 00:19:14,    152,    0.0,    4.5,   0.00,   0.00, 1020.6,   88.6, -999.0
15-03-2022, 00:19:24,    152,    0.0,    4.6,   0.00,   0.00, 1020.6,   88.5, -999.0
15-03-2022, 00:19:34,    152,    0.0,    4.6,   0.00,   0.00, 1020.6,   88.6, -999.0
15-03-2022, 00:19:44,    152,    0.0,    4.7,   0.00,   0.00, 1020.6,   88.8, -999.0
15-03-2022, 00:19:54,    152,    0.0,    4.7,   0.00,   0.00, 1020.6,   88.9, -999.0
15-03-2022, 00:20:04,    152,    0.0,    4.8,   0.00,   0.00, 1020.6,   89.0, -999.0
15-03-2022, 00:20:14,    152,    0.0,    4.8,   0.00,   0.00, 1020.6,   88.9, -999.0
15-03-2022, 00:20:24,    152,    0.0,    4.8,   0.00,   0.00, 1020.6,   88.9, -999.0
15-03-2022, 00:20:34,    152,    0.0,    4.7,   0.00,   0.00, 1020.6,   88.9, -999.0
15-03-2022, 00:20:43,    152,    0.0,    4.9,   0.00,   0.00, 1020.6,   88.9, -999.0
15-03-2022, 00:20:54,    152,    0.0,    4.8,   0.00,   0.00, 1020.6,   88.9, -999.0
15-03-2022, 00:21:04,    152,    0.0,    4.8,   0.00,   0.00, 1020.6,   88.9, -999.0
15-03-2022, 00:21:13,    151,    0.0,    4.8,   0.00,   0.00, 1020.6,   88.9, -999.0
15-03-2022, 00:21:24,    152,    0.0,    4.9,   0.00,   0.00, 1020.6,   88.8, -999.0
15-03-2022, 00:21:34,    151,    0.0,    4.8,   0.00,   0.00, 1020.6,   88.5, -999.0
15-03-2022, 00:21:43,    152,    0.0,    4.8,   0.00,   0.00, 1020.6,   88.5, -999.0
15-03-2022, 00:21:53,    151,    0.0,    4.7,   0.00,   0.00, 1020.6,   88.4, -999.0
15-03-2022, 00:22:04,    152,    0.0,    4.7,   0.00,   0.00, 1020.6,   88.5, -999.0
15-03-2022, 00:22:13,    151,    0.0,    4.8,   0.00,   0.00, 1020.6,   88.6, -999.0
15-03-2022, 00:22:23,    152,    0.0,    4.7,   0.00,   0.00, 1020.6,   88.4, -999.0
15-03-2022, 00:22:33,    152,    0.0,    4.7,   0.00,   0.00, 1020.6,   88.3, -999.0
15-03-2022, 00:22:43,    152,    0.0,    4.7,   0.00,   0.00, 1020.6,   88.2, -999.0
15-03-2022, 00:22:53,    152,    0.0,    4.7,   0.00,   0.00, 1020.6,   88.2, -999.0
15-03-2022, 00:23:03,    152,    0.0,    4.7,   0.00,   0.00, 1020.6,   88.2, -999.0
15-03-2022, 00:23:13,    152,    0.0,    4.7,   0.00,   0.00, 1020.6,   88.3, -999.0
15-03-2022, 00:23:23,    151,    0.0,    4.7,   0.00,   0.00, 1020.6,   88.3, -999.0
15-03-2022, 00:23:33,    152,    0.0,    4.7,   0.00,   0.00, 1020.6,   88.3, -999.0
15-03-2022, 00:23:43,    152,    0.0,    4.7,   0.00,   0.00, 1020.6,   88.2, -999.0
15-03-2022, 00:23:53,    152,    0.0,    4.7,   0.00,   0.00, 1020.6,   88.3, -999.0
15-03-2022, 00:24:03,    152,    0.0,    4.7,   0.00,   0.00, 1020.6,   88.3, -999.0
15-03-2022, 00:24:13,    151,    0.0,    4.7,   0.00,   0.00, 1020.6,   88.4, -999.0
15-03-2022, 00:24:22,    151,    0.0,    4.7,   0.00,   0.00, 1020.6,   88.3, -999.0
15-03-2022, 00:24:33,    152,    0.0,    4.8,   0.00,   0.00, 1020.6,   88.3, -999.0
15-03-2022, 00:24:43,    152,    0.0,    4.8,   0.00,   0.00, 1020.6,   88.4, -999.0
15-03-2022, 00:24:52,    151,    0.0,    4.8,   0.00,   0.00, 1020.6,   88.2, -999.0
15-03-2022, 00:25:03,    151,    0.0,    4.7,   0.00,   0.00, 1020.6,   88.2, -999.0
15-03-2022, 00:25:12,    151,    0.0,    4.7,   0.00,   0.00, 1020.6,   88.2, -999.0
15-03-2022, 00:25:22,    151,    0.0,    4.5,   0.00,   0.00, 1020.6,   88.1, -999.0
15-03-2022, 00:25:32,    151,    0.0,    4.5,   0.00,   0.00, 1020.6,   88.0, -999.0
15-03-2022, 00:25:42,    151,    0.0,    4.6,   0.00,   0.00, 1020.5,   87.8, -999.0
15-03-2022, 00:25:52,    151,    0.0,    4.7,   0.00,   0.00, 1020.6,   87.8, -999.0
15-03-2022, 00:26:02,    151,    0.0,    4.6,   0.00,   0.00, 1020.6,   87.8, -999.0
15-03-2022, 00:26:12,    151,    0.0,    4.6,   0.00,   0.00, 1020.6,   87.9, -999.0
15-03-2022, 00:26:22,    151,    0.0,    4.7,   0.00,   0.00, 1020.5,   87.9, -999.0
15-03-2022, 00:26:32,    151,    0.0,    4.6,   0.00,   0.00, 1020.6,   87.9, -999.0
15-03-2022, 00:26:42,    151,    0.0,    4.7,   0.00,   0.00, 1020.6,   87.9, -999.0
15-03-2022, 00:26:52,    151,    0.0,    4.7,   0.00,   0.00, 1020.6,   88.0, -999.0
15-03-2022, 00:27:02,    151,    0.0,    4.7,   0.00,   0.00, 1020.5,   88.1, -999.0
15-03-2022, 00:27:12,    151,    0.0,    4.6,   0.00,   0.00, 1020.6,   88.1, -999.0
15-03-2022, 00:27:22,    151,    0.0,    4.6,   0.00,   0.00, 1020.6,   87.9, -999.0
15-03-2022, 00:27:32,    151,    0.0,    4.6,   0.00,   0.00, 1020.6,   87.8, -999.0
15-03-2022, 00:27:42,    151,    0.0,    4.5,   0.00,   0.00, 1020.6,   87.8, -999.0
15-03-2022, 00:27:52,    151,    0.0,    4.5,   0.00,   0.00, 1020.5,   87.8, -999.0
15-03-2022, 00:28:01,    151,    0.0,    4.5,   0.00,   0.00, 1020.6,   87.9, -999.0
15-03-2022, 00:28:12,    151,    0.0,    4.6,   0.00,   0.00, 1020.5,   87.9, -999.0
15-03-2022, 00:28:21,    151,    0.0,    4.5,   0.00,   0.00, 1020.5,   87.9, -999.0
15-03-2022, 00:28:31,    150,    0.0,    4.6,   0.00,   0.00, 1020.5,   87.9, -999.0
15-03-2022, 00:28:41,    151,    0.0,    4.5,   0.00,   0.00, 1020.5,   87.9, -999.0
15-03-2022, 00:28:51,    151,    0.0,    4.5,   0.00,   0.00, 1020.5,   87.8, -999.0
15-03-2022, 00:29:01,    151,    0.0,    4.6,   0.00,   0.00, 1020.5,   87.8, -999.0
15-03-2022, 00:29:11,    151,    0.0,    4.6,   0.00,   0.00, 1020.5,   87.9, -999.0
15-03-2022, 00:29:21,    151,    0.0,    4.6,   0.00,   0.00, 1020.5,   88.1, -999.0
15-03-2022, 00:29:31,    150,    0.0,    4.7,   0.00,   0.00, 1020.5,   88.2, -999.0
15-03-2022, 00:29:41,    150,    0.0,    4.6,   0.00,   0.00, 1020.5,   88.2, -999.0
15-03-2022, 00:29:51,    150,    0.0,    4.7,   0.00,   0.00, 1020.6,   88.0, -999.0
15-03-2022, 00:30:01,    151,    0.0,    4.6,   0.00,   0.00, 1020.5,   88.0, -999.0
15-03-2022, 00:30:11,    150,    0.0,    4.6,   0.00,   0.00, 1020.5,   87.9, -999.0
15-03-2022, 00:30:21,    150,    0.0,    4.5,   0.00,   0.00, 1020.5,   88.0, -999.0
15-03-2022, 00:30:31,    150,    0.0,    4.6,   0.00,   0.00, 1020.6,   88.2, -999.0
15-03-2022, 00:30:41,    150,    0.0,    4.6,   0.00,   0.00, 1020.5,   88.1, -999.0
15-03-2022, 00:30:51,    150,    0.0,    4.6,   0.00,   0.00, 1020.5,   88.0, -999.0
15-03-2022, 00:31:01,    150,    0.0,    4.6,   0.00,   0.00, 1020.5,   88.0, -999.0
15-03-2022, 00:31:10,    150,    0.0,    4.7,   0.00,   0.00, 1020.5,   88.1, -999.0
15-03-2022, 00:31:21,    150,    0.0,    4.6,   0.00,   0.00, 1020.5,   88.2, -999.0
15-03-2022, 00:31:30,    150,    0.0,    4.6,   0.00,   0.00, 1020.4,   88.3, -999.0
15-03-2022, 00:31:40,    150,    0.0,    4.6,   0.00,   0.00, 1020.5,   88.2, -999.0
15-03-2022, 00:31:50,    150,    0.0,    4.6,   0.00,   0.00, 1020.4,   88.3, -999.0
15-03-2022, 00:32:00,    150,    0.0,    4.6,   0.00,   0.00, 1020.5,   88.1, -999.0
15-03-2022, 00:32:10,    151,    0.0,    4.6,   0.00,   0.00, 1020.5,   88.0, -999.0
15-03-2022, 00:32:20,    150,    0.0,    4.6,   0.00,   0.00, 1020.5,   88.1, -999.0
15-03-2022, 00:32:30,    150,    0.0,    4.6,   0.00,   0.00, 1020.5,   88.2, -999.0
15-03-2022, 00:32:40,    150,    0.0,    4.6,   0.00,   0.00, 1020.5,   88.2, -999.0
15-03-2022, 00:32:50,    150,    0.0,    4.6,   0.00,   0.00, 1020.5,   88.2, -999.0
15-03-2022, 00:33:00,    150,    0.0,    4.6,   0.00,   0.00, 1020.5,   88.2, -999.0
15-03-2022, 00:33:10,    150,    0.0,    4.5,   0.00,   0.00, 1020.5,   87.9, -999.0
15-03-2022, 00:33:20,    150,    0.0,    4.5,   0.00,   0.00, 1020.5,   87.9, -999.0
15-03-2022, 00:33:30,    150,    0.0,    4.5,   0.00,   0.00, 1020.5,   87.9, -999.0
15-03-2022, 00:33:40,    150,    0.0,    4.5,   0.00,   0.00, 1020.4,   87.9, -999.0
15-03-2022, 00:33:50,    150,    0.0,    4.5,   0.00,   0.00, 1020.5,   87.8, -999.0
15-03-2022, 00:34:00,    150,    0.0,    4.5,   0.00,   0.00, 1020.4,   87.8, -999.0
15-03-2022, 00:34:10,    150,    0.0,    4.4,   0.00,   0.00, 1020.5,   87.9, -999.0
15-03-2022, 00:34:19,    150,    0.0,    4.4,   0.00,   0.00, 1020.5,   87.9, -999.0
15-03-2022, 00:34:30,    150,    0.0,    4.4,   0.00,   0.00, 1020.5,   87.9, -999.0
15-03-2022, 00:34:40,    150,    0.0,    4.4,   0.00,   0.00, 1020.5,   88.0, -999.0
15-03-2022, 00:34:49,    150,    0.0,    4.5,   0.00,   0.00, 1020.4,   88.0, -999.0
15-03-2022, 00:35:00,    150,    0.0,    4.4,   0.00,   0.00, 1020.4,   88.2, -999.0
15-03-2022, 00:35:09,    150,    0.0,    4.4,   0.00,   0.00, 1020.5,   88.1, -999.0
15-03-2022, 00:35:19,    150,    0.0,    4.5,   0.00,   0.00, 1020.4,   88.1, -999.0
15-03-2022, 00:35:29,    150,    0.0,    4.4,   0.00,   0.00, 1020.5,   88.1, -999.0
15-03-2022, 00:35:39,    150,    0.0,    4.4,   0.00,   0.00, 1020.5,   88.0, -999.0
15-03-2022, 00:35:49,    149,    0.0,    4.4,   0.00,   0.00, 1020.4,   88.1, -999.0
15-03-2022, 00:35:59,    150,    0.0,    4.4,   0.00,   0.00, 1020.5,   88.1, -999.0
15-03-2022, 00:36:10,    150,    0.0,    4.5,   0.00,   0.00, 1020.5,   88.2, -999.0
15-03-2022, 00:36:19,    150,    0.0,    4.4,   0.00,   0.00, 1020.5,   88.2, -999.0
15-03-2022, 00:36:29,    150,    0.0,    4.4,   0.00,   0.00, 1020.5,   88.2, -999.0
15-03-2022, 00:36:39,    150,    0.0,    4.4,   0.00,   0.00, 1020.5,   88.4, -999.0
15-03-2022, 00:36:49,    150,    0.0,    4.5,   0.00,   0.00, 1020.5,   88.3, -999.0
15-03-2022, 00:36:59,    150,    0.0,    4.5,   0.00,   0.00, 1020.5,   88.3, -999.0
15-03-2022, 00:37:09,    150,    0.0,    4.4,   0.00,   0.00, 1020.5,   88.3, -999.0
15-03-2022, 00:37:19,    150,    0.0,    4.5,   0.00,   0.00, 1020.5,   88.3, -999.0
15-03-2022, 00:37:29,    150,    0.0,    4.5,   0.00,   0.00, 1020.5,   88.3, -999.0
15-03-2022, 00:37:39,    150,    0.0,    4.5,   0.00,   0.00, 1020.6,   88.4, -999.0
15-03-2022, 00:37:48,    150,    0.0,    4.4,   0.00,   0.00, 1020.6,   88.3, -999.0
15-03-2022, 00:37:58,    149,    0.0,    4.4,   0.00,   0.00, 1020.5,   88.4, -999.0
15-03-2022, 00:38:09,    150,    0.0,    4.4,   0.00,   0.00, 1020.5,   88.3, -999.0
15-03-2022, 00:38:18,    150,    0.0,    4.4,   0.00,   0.00, 1020.5,   88.3, -999.0
15-03-2022, 00:38:28,    150,    0.0,    4.4,   0.00,   0.00, 1020.5,   88.2, -999.0
15-03-2022, 00:38:38,    150,    0.0,    4.4,   0.00,   0.00, 1020.5,   88.3, -999.0
15-03-2022, 00:38:48,    150,    0.0,    4.4,   0.00,   0.00, 1020.5,   88.5, -999.0
15-03-2022, 00:38:58,    150,    0.0,    4.4,   0.00,   0.00, 1020.6,   88.4, -999.0
15-03-2022, 00:39:08,    150,    0.0,    4.4,   0.00,   0.00, 1020.6,   88.4, -999.0
15-03-2022, 00:39:18,    150,    0.0,    4.4,   0.00,   0.00, 1020.6,   88.4, -999.0
15-03-2022, 00:39:28,    150,    0.0,    4.4,   0.00,   0.00, 1020.6,   88.4, -999.0
15-03-2022, 00:39:38,    150,    0.0,    4.4,   0.00,   0.00, 1020.5,   88.4, -999.0
15-03-2022, 00:39:48,    150,    0.0,    4.3,   0.00,   0.00, 1020.5,   88.4, -999.0
15-03-2022, 00:39:58,    149,    0.0,    4.3,   0.00,   0.00, 1020.6,   88.4, -999.0
15-03-2022, 00:40:08,    150,    0.0,    4.4,   0.00,   0.00, 1020.5,   88.6, -999.0
15-03-2022, 00:40:18,    149,    0.0,    4.5,   0.00,   0.00, 1020.5,   88.8, -999.0
15-03-2022, 00:40:28,    150,    0.0,    4.5,   0.00,   0.00, 1020.5,   88.9, -999.0
15-03-2022, 00:40:38,    149,    0.0,    4.5,   0.00,   0.00, 1020.6,   88.8, -999.0
15-03-2022, 00:40:48,    149,    0.0,    4.5,   0.00,   0.00, 1020.6,   88.8, -999.0
15-03-2022, 00:40:57,    150,    0.0,    4.4,   0.00,   0.00, 1020.5,   88.8, -999.0
15-03-2022, 00:41:07,    150,    0.0,    4.4,   0.00,   0.00, 1020.6,   88.6, -999.0
15-03-2022, 00:41:18,    150,    0.0,    4.4,   0.00,   0.00, 1020.6,   88.6, -999.0
15-03-2022, 00:41:27,    149,    0.0,    4.4,   0.00,   0.00, 1020.6,   88.6, -999.0
15-03-2022, 00:41:37,    149,    0.0,    4.4,   0.00,   0.00, 1020.5,   88.6, -999.0
15-03-2022, 00:41:48,    150,    0.0,    4.4,   0.00,   0.00, 1020.6,   88.6, -999.0
15-03-2022, 00:41:57,    149,    0.0,    4.2,   0.00,   0.00, 1020.6,   88.6, -999.0
15-03-2022, 00:42:07,    149,    0.0,    4.3,   0.00,   0.00, 1020.5,   88.6, -999.0
15-03-2022, 00:42:17,    149,    0.0,    4.4,   0.00,   0.00, 1020.5,   88.7, -999.0
15-03-2022, 00:42:27,    149,    0.0,    4.4,   0.00,   0.00, 1020.6,   88.8, -999.0
15-03-2022, 00:42:37,    150,    0.0,    4.4,   0.00,   0.00, 1020.6,   88.9, -999.0
15-03-2022, 00:42:47,    150,    0.0,    4.5,   0.00,   0.00, 1020.5,   88.9, -999.0
15-03-2022, 00:42:57,    149,    0.6,    4.5,   0.00,   0.00, 1020.7,   89.2, -999.0
15-03-2022, 00:43:07,    150,    0.9,    4.6,   0.00,   0.00, 1020.7,   89.5, -999.0
15-03-2022, 00:43:17,    150,    0.3,    4.6,   0.00,   0.00, 1020.7,   89.5, -999.0
15-03-2022, 00:43:27,    149,    0.0,    4.6,   0.00,   0.00, 1020.6,   89.3, -999.0
15-03-2022, 00:43:37,    149,    0.0,    4.7,   0.00,   0.00, 1020.6,   89.5, -999.0
15-03-2022, 00:43:47,    149,    0.1,    4.7,   0.00,   0.00, 1020.6,   89.6, -999.0
15-03-2022, 00:43:57,    149,    0.0,    4.7,   0.00,   0.00, 1020.6,   89.4, -999.0
15-03-2022, 00:44:06,    149,    0.0,    4.7,   0.00,   0.00, 1020.5,   89.4, -999.0
15-03-2022, 00:44:17,    149,    0.0,    4.6,   0.00,   0.00, 1020.5,   89.3, -999.0
15-03-2022, 00:44:27,    150,    0.0,    4.6,   0.00,   0.00, 1020.6,   89.3, -999.0
15-03-2022, 00:44:36,    149,    0.2,    4.6,   0.00,   0.00, 1020.6,   89.2, -999.0
15-03-2022, 00:44:46,    149,    0.0,    4.6,   0.00,   0.00, 1020.6,   89.1, -999.0
15-03-2022, 00:44:57,    149,    0.0,    4.6,   0.00,   0.00, 1020.5,   89.1, -999.0
15-03-2022, 00:45:06,    149,    0.0,    4.6,   0.00,   0.00, 1020.5,   89.1, -999.0
15-03-2022, 00:45:16,    149,    0.0,    4.6,   0.00,   0.00, 1020.5,   89.2, -999.0
15-03-2022, 00:45:26,    149,    0.0,    4.7,   0.00,   0.00, 1020.6,   89.3, -999.0
15-03-2022, 00:45:36,    149,    0.0,    4.7,   0.00,   0.00, 1020.5,   89.2, -999.0
15-03-2022, 00:45:46,    149,    0.0,    4.8,   0.00,   0.00, 1020.5,   89.3, -999.0
15-03-2022, 00:45:56,    149,    0.1,    4.7,   0.00,   0.00, 1020.6,   89.5, -999.0
15-03-2022, 00:46:06,    149,    0.8,    4.8,   0.00,   0.00, 1020.7,   89.6, -999.0
15-03-2022, 00:46:16,    150,    0.2,    4.7,   0.00,   0.00, 1020.6,   89.5, -999.0
15-03-2022, 00:46:26,    150,    0.0,    4.6,   0.00,   0.00, 1020.5,   89.1, -999.0
15-03-2022, 00:46:36,    150,    0.0,    4.6,   0.00,   0.00, 1020.5,   89.1, -999.0